TimeEST,TemperatureF,Dew PointF,Humidity,Sea Level PressureIn,VisibilityMPH,Wind Direction,Wind SpeedMPH,Gust SpeedMPH,PrecipitationIn,Events,Conditions,WindDirDegrees,DateUTC
12:54 AM,34.0,25.0,70,29.99,10.0,North,3.5,-,N/A,,Overcast,350,2012-11-05 05:54:00
1:54 AM,34.0,24.1,67,29.99,10.0,NNW,4.6,-,N/A,,Overcast,330,2012-11-05 06:54:00
2:07 AM,33.8,24.8,70,29.97,10.0,WNW,3.5,-,N/A,,Overcast,300,2012-11-05 07:07:00
2:54 AM,34.0,25.0,70,29.99,10.0,Calm,Calm,-,N/A,,Overcast,0,2012-11-05 07:54:00
3:54 AM,34.0,24.1,67,30.00,10.0,Calm,Calm,-,N/A,,Overcast,0,2012-11-05 08:54:00
4:54 AM,33.1,24.1,70,29.99,10.0,NW,3.5,-,N/A,,Overcast,320,2012-11-05 09:54:00
5:54 AM,33.1,24.1,70,29.99,10.0,NW,3.5,-,N/A,,Overcast,320,2012-11-05 10:54:00
6:54 AM,33.1,23.0,66,30.02,10.0,NW,4.6,-,N/A,,Overcast,310,2012-11-05 11:54:00
7:54 AM,34.0,21.9,61,30.04,10.0,NNW,5.8,-,N/A,,Overcast,330,2012-11-05 12:54:00
8:54 AM,34.0,21.0,59,30.05,10.0,NNW,8.1,-,N/A,,Overcast,340,2012-11-05 13:54:00
9:54 AM,34.0,23.0,64,30.05,9.0,NNW,6.9,-,N/A,,Overcast,340,2012-11-05 14:54:00
10:54 AM,34.0,21.9,61,30.06,10.0,NNW,8.1,-,0.00,,Overcast,340,2012-11-05 15:54:00
11:54 AM,35.1,21.9,59,30.04,9.0,NNW,8.1,-,0.00,,Overcast,330,2012-11-05 16:54:00
12:54 PM,35.1,21.0,57,30.04,10.0,NNW,8.1,-,0.00,,Overcast,330,2012-11-05 17:54:00
1:54 PM,35.1,21.0,57,30.04,10.0,North,11.5,-,N/A,,Overcast,350,2012-11-05 18:54:00
2:54 PM,37.0,18.0,46,30.04,10.0,NNW,11.5,-,N/A,,Overcast,340,2012-11-05 19:54:00
3:54 PM,36.0,14.0,41,30.05,10.0,NW,8.1,-,N/A,,Clear,320,2012-11-05 20:54:00
4:54 PM,34.0,14.0,44,30.07,10.0,NW,4.6,-,N/A,,Clear,320,2012-11-05 21:54:00
5:54 PM,32.0,15.1,50,30.09,10.0,NW,5.8,-,N/A,,Clear,320,2012-11-05 22:54:00
6:54 PM,30.9,15.1,52,30.12,10.0,NNW,4.6,-,N/A,,Clear,330,2012-11-05 23:54:00
7:54 PM,30.9,15.1,52,30.14,10.0,NW,3.5,-,N/A,,Mostly Cloudy,310,2012-11-06 00:54:00
8:54 PM,28.9,15.1,56,30.15,10.0,Calm,Calm,-,N/A,,Clear,0,2012-11-06 01:54:00
9:54 PM,28.9,15.1,56,30.16,10.0,Calm,Calm,-,N/A,,Overcast,0,2012-11-06 02:54:00
10:54 PM,25.0,16.0,69,30.15,10.0,Calm,Calm,-,N/A,,Clear,0,2012-11-06 03:54:00
11:54 PM,27.0,16.0,63,30.16,10.0,Calm,Calm,-,N/A,,Overcast,0,2012-11-06 04:54:00